DW9987 Weather Reports


time (UTC)temp
C
wind
direction
speed
KPH
gust
KPH
rain 1hr
cm
rain 24hr
cm
rain mn
cm
humidity
%
barometer
mb
20260510014517 17 360 3.2 12.9 0.00 0.00 0.00 41 1008.4
20260510013006 18 307 3.2 12.9 0.00 0.00 0.00 41 1008.0
20260510011504 18 351 0.0 6.4 0.00 0.00 0.00 39 1007.7
20260510004558 20 360 3.2 14.5 0.00 0.00 0.00 35 1007.0
20260510003100 20 360 4.8 14.5 0.00 0.00 0.00 34 1006.8
20260510001553 20 16 4.8 11.3 0.00 0.00 0.00 38 1006.4
20260510000052 21 339 0.0 20.9 0.00 0.00 0.00 41 1006.1
20260509234549 21 186 4.8 12.9 0.00 0.00 0.00 41 1005.8
20260509233049 21 90 3.2 11.3 0.00 0.00 0.00 40 1005.8
20260509231551 21 211 3.2 14.5 0.00 0.00 0.00 41 1005.6
20260509230051 21 293 3.2 17.7 0.00 0.00 0.00 40 1005.5
20260509224547 21 69 3.2 17.7 0.00 0.00 0.00 39 1005.4
20260509223048 21 167 6.4 14.5 0.00 0.00 0.00 39 1005.4
20260509221547 21 275 3.2 14.5 0.00 0.00 0.00 39 1005.2
20260509220048 21 360 6.4 17.7 0.00 0.00 0.00 38 1005.0
20260509214546 21 220 8.0 20.9 0.00 0.00 0.00 36 1004.9
20260509213053 21 19 9.7 22.5 0.00 0.00 0.00 35 1004.8
20260509211543 22 306 6.4 20.9 0.00 0.00 0.00 35 1004.7
20260509210048 22 298 9.7 22.5 0.00 0.00 0.00 34 1004.7
20260509204541 22 25 8.0 25.7 0.00 0.00 0.00 33 1004.4
20260509203041 22 63 8.0 17.7 0.00 0.00 0.00 32 1004.3
20260509201541 22 18 3.2 14.5 0.00 0.00 0.00 32 1004.3
20260509200042 22 360 4.8 16.1 0.00 0.00 0.00 31 1004.3
20260509194552 22 333 4.8 24.1 0.00 0.00 0.00 30 1004.4
20260509193040 22 105 6.4 27.4 0.00 0.00 0.00 29 1004.3
20260509191539 23 355 8.0 20.9 0.00 0.00 0.00 30 1004.3
20260509190040 23 306 4.8 16.1 0.00 0.00 0.00 30 1004.3
20260509184536 23 30 6.4 20.9 0.00 0.00 0.00 31 1004.2
20260509183036 22 5 6.4 20.9 0.00 0.00 0.00 29 1004.4
20260509181534 23 296 4.8 22.5 0.00 0.00 0.00 32 1004.2
20260509180047 23 330 9.7 22.5 0.00 0.00 0.00 31 1004.1
20260509174530 23 277 6.4 24.1 0.00 0.00 0.00 32 1004.2
20260509173032 22 318 11.3 24.1 0.00 0.00 0.00 34 1004.4
20260509171534 22 348 4.8 12.9 0.00 0.00 0.00 41 1004.3
20260509170025 22 165 3.2 19.3 0.00 0.00 0.00 43 1004.3
20260509164520 22 334 1.6 11.3 0.00 0.00 0.00 47 1004.2
20260509163017 21 121 1.6 12.9 0.00 0.00 0.00 50 1004.4
20260509161513 20 234 4.8 16.1 0.00 0.00 0.00 56 1004.4
20260509160011 19 197 6.4 14.5 0.00 0.00 0.00 60 1004.5
20260509154508 19 24 3.2 12.9 0.00 0.00 0.00 63 1004.5
20260509153013 18 165 4.8 12.9 0.00 0.00 0.00 64 1004.6
20260509151502 18 69 1.6 11.3 0.00 0.00 0.00 68 1004.8
20260509150058 17 227 3.2 14.5 0.00 0.00 0.00 71 1004.8
20260509144555 17 88 1.6 11.3 0.00 0.00 0.00 73 1004.8
20260509143051 16 92 3.2 14.5 0.00 0.00 0.00 76 1004.7
20260509141548 15 170 4.8 12.9 0.00 0.00 0.00 77 1004.6
20260509140056 15 215 4.8 16.1 0.00 0.00 0.00 80 1004.6
20260509134541 15 345 1.6 11.3 0.00 0.00 0.00 82 1004.7
20260509133039 13 248 4.8 12.9 0.00 0.00 0.00 84 1004.5
20260509131535 13 321 3.2 12.9 0.00 0.00 0.00 87 1004.5
20260509130034 12 262 4.8 12.9 0.00 0.00 0.00 89 1004.7
20260509124532 11 204 6.4 22.5 0.00 0.00 0.00 89 1004.7
20260509123031 11 244 4.8 11.3 0.00 0.00 0.00 91 1004.5
20260509121531 11 246 1.6 9.7 0.00 0.00 0.00 91 1004.5
20260509120030 11 249 0.0 9.7 0.00 0.00 0.00 92 1004.5
20260509114534 11 232 3.2 12.9 0.00 0.00 0.00 93 1004.3
20260509113029 10 207 1.6 9.7 0.00 0.00 0.00 93 1004.2
20260509111528 10 241 0.0 4.8 0.00 0.00 0.00 93 1004.2
20260509110027 10 216 0.0 9.7 0.00 0.00 0.00 92 1004.2
20260509104526 10 196 4.8 11.3 0.00 0.00 0.00 92 1003.8
20260509103023 11 172 4.8 11.3 0.00 0.00 0.00 92 1003.7
20260509101520 11 189 4.8 11.3 0.00 0.00 0.00 92 1003.9
20260509100019 11 211 4.8 9.7 0.00 0.00 0.00 92 1003.9
20260509094517 11 189 1.6 9.7 0.00 0.00 0.00 92 1004.1
20260509093016 11 184 1.6 8.0 0.00 0.00 0.00 92 1004.2
20260509091515 11 189 1.6 9.7 0.00 0.00 0.00 92 1004.3
20260509090023 11 256 1.6 6.4 0.00 0.00 0.00 91 1004.4
20260509084512 11 210 1.6 6.4 0.00 0.00 0.00 91 1004.4
20260509083012 11 205 1.6 9.7 0.00 0.00 0.00 91 1004.6
20260509081512 11 194 0.0 9.7 0.00 0.00 0.00 90 1004.4
20260509080011 11 185 1.6 9.7 0.00 0.00 0.00 90 1004.5
20260509074510 11 229 3.2 9.7 0.00 0.00 0.00 89 1004.4
20260509073017 11 208 1.6 8.0 0.00 0.00 0.00 89 1004.5
20260509071504 11 264 1.6 8.0 0.00 0.00 0.00 88 1004.8
20260509070002 11 209 1.6 9.7 0.00 0.00 0.00 88 1005.0
20260509064601 11 234 1.6 11.3 0.00 0.00 0.00 87 1005.4
20260509063104 11 217 0.0 6.4 0.00 0.00 0.00 86 1005.4
20260509061556 12 240 1.6 11.3 0.00 0.00 0.00 85 1005.6
20260509060109 12 233 1.6 11.3 0.00 0.00 0.00 85 1005.6
20260509054552 12 238 1.6 9.7 0.00 0.00 0.00 85 1005.7
20260509053102 12 215 0.0 12.9 0.00 0.00 0.00 84 1005.9
20260509051551 12 198 3.2 12.9 0.00 0.00 0.00 84 1005.9
20260509050046 12 234 3.2 8.0 0.00 0.00 0.00 84 1005.8
20260509044545 12 203 1.6 14.5 0.00 0.00 0.00 83 1005.9
20260509043052 13 186 3.2 11.3 0.00 0.00 0.00 83 1005.9
20260509041545 13 200 3.2 9.7 0.00 0.00 0.00 82 1005.8
20260509040059 13 205 4.8 12.9 0.00 0.00 0.00 81 1005.8
20260509034544 13 225 3.2 11.3 0.00 0.00 0.00 80 1006.1
20260509033106 14 233 3.2 14.5 0.00 0.00 0.00 77 1006.2
20260509031542 14 202 3.2 11.3 0.00 0.00 0.00 74 1006.2
20260509030043 15 206 4.8 12.9 0.00 0.00 0.00 72 1006.3
20260509024552 15 201 6.4 14.5 0.00 0.00 0.00 69 1006.2
20260509023042 15 213 3.2 11.3 0.00 0.00 0.00 68 1006.2
20260509021541 15 194 3.2 12.9 0.00 0.00 0.00 68 1006.1
20260509020040 16 191 4.8 11.3 0.00 0.00 0.00 66 1006.0